Weather History for Rochester, NH

Change the Weather History Date:

Wednesday, November 7, 2012

  Actual Average (KSFM) Record (KSFM)
Temperature  
Mean Temperature 32 °F -  
Max Temperature 37 °F 48 °F 64 °F (2011)
Min Temperature 27 °F 29 °F 24 °F (2006)
Degree Days  
Heating Degree Days 33    
Moisture  
Dew Point 17 °F    
Average Humidity 56    
Maximum Humidity 93    
Minimum Humidity 36    
Precipitation  
Precipitation 0.00 in - - ()
Sea Level Pressure  
Sea Level Pressure 30.02 in    
Wind  
Wind Speed 10 mph (NNE)    
Max Wind Speed 24 mph    
Max Gust Speed 31 mph    
Visibility 8 miles    
Events Snow    
Averages and records for this station are not official NWS values.
T = Trace of Precipitation, MM = Missing Value Source: NWS Daily Summary

Daily Weather History Graph

Daily Weather History Graph

Search for Another Location

Airport:

Trip Planner

Search our weather history database for the weather conditions in past years. The results will help you decide how hot, cold, wet, or windy it might be!

Date:

Astronomy

Nov. 07, 2012 Rise Set
Actual Time 6:27 AM EST 4:27 PM EST
Civil Twilight 5:56 AM EST 4:57 PM EST
Nautical Twilight 5:22 AM EST 5:31 PM EST
Astronomical Twilight 4:49 AM EST 6:04 PM EST
Moon No Moon Rise 12:45 PM EST (11/7)
Length of Visible Light 11h 00m
Length of Day
10h 00m
Last Quarter, 43% of the Moon is Illuminated
Nov 7
Last Quarter
Nov 13
New
Nov 20
First Quarter
Nov 28
Full
Dec 6
Last Quarter

Hourly Weather History & Observations

Time (EST) Temp. Windchill Dew Point Humidity Pressure Visibility Wind Dir Wind Speed Gust Speed Precip Events Conditions
12:51 AM 27.0 °F 20.5 °F 16.0 °F 63% 30.22 in 10.0 mi North 5.8 mph - N/A   Clear
1:51 AM 27.0 °F 19.5 °F 17.1 °F 66% 30.20 in 10.0 mi North 6.9 mph - N/A   Clear
2:51 AM 28.0 °F 20.8 °F 16.0 °F 61% 30.19 in 10.0 mi North 6.9 mph - N/A   Clear
3:51 AM 28.9 °F 21.9 °F 17.1 °F 61% 30.19 in 10.0 mi North 6.9 mph - N/A   Mostly Cloudy
4:51 AM 28.9 °F 20.4 °F 17.1 °F 61% 30.17 in 10.0 mi NNE 9.2 mph - N/A   Mostly Cloudy
5:51 AM 30.0 °F 22.4 °F 15.1 °F 54% 30.16 in 10.0 mi NNE 8.1 mph - N/A   Clear
7:51 AM 30.9 °F 22.2 °F 16.0 °F 54% 30.16 in 10.0 mi NNE 10.4 mph - N/A   Clear
8:51 AM 30.9 °F 21.2 °F 15.1 °F 52% 30.12 in 10.0 mi NNE 12.7 mph 21.9 mph N/A   Clear
9:51 AM 33.1 °F 23.9 °F 15.1 °F 48% 30.12 in 10.0 mi NNE 12.7 mph 23.0 mph N/A   Clear
11:51 AM 34.0 °F 25.0 °F 15.1 °F 46% 30.05 in 10.0 mi NNE 12.7 mph 20.7 mph N/A   Clear
2:51 PM 34.0 °F 26.0 °F 15.1 °F 46% 29.98 in 10.0 mi North 10.4 mph 18.4 mph N/A   Overcast
3:51 PM 35.1 °F 27.4 °F 14.0 °F 42% 29.95 in 10.0 mi North 10.4 mph 20.7 mph N/A   Overcast
4:51 PM 35.1 °F 25.9 °F 12.9 °F 40% 29.94 in 10.0 mi North 13.8 mph 21.9 mph N/A   Overcast
6:51 PM 37.0 °F 29.3 °F 12.0 °F 36% 29.93 in 10.0 mi NNE 11.5 mph 17.3 mph N/A   Overcast
7:51 PM 37.0 °F 28.9 °F 12.0 °F 36% 29.93 in 10.0 mi NNE 12.7 mph 23.0 mph N/A   Overcast
8:51 PM 37.0 °F 28.5 °F 12.9 °F 37% 29.91 in 10.0 mi NNE 13.8 mph 23.0 mph N/A   Overcast
9:51 PM 37.0 °F 25.6 °F 16.0 °F 42% 29.90 in 10.0 mi NE 24.2 mph 31.1 mph N/A   Overcast
10:51 PM 35.1 °F 25.2 °F 21.0 °F 57% 29.87 in 6.0 mi North 16.1 mph 29.9 mph 0.00 in Snow Light Snow
10:59 PM 33.8 °F 23.5 °F 24.8 °F 70% 29.87 in 3.0 mi North 16.1 mph 29.9 mph 0.00 in Snow Light Snow
11:06 PM 32.0 °F 22.5 °F 24.8 °F 75% 29.87 in 1.8 mi NNE 12.7 mph 28.8 mph 0.00 in Snow Light Snow
11:35 PM 30.2 °F 19.8 °F 28.4 °F 93% 29.85 in 0.8 mi North 13.8 mph 25.3 mph 0.00 in Snow Light Snow
11:58 PM 30.2 °F 20.2 °F 28.4 °F 93% 29.83 in 1.0 mi North 12.7 mph 20.7 mph 0.00 in Snow Light Snow